CAPE
508 451 589 679 905 1221 1100 1155 1095 1088 1138 1348 1370 1321 1215 1109 1238 1340 1419 1356 1210 1078 1080 1295 1381 1594 1636 1675 1614 1098 1108 1438 1425 1824 3000 2790 2863 2850 2929 3006 3016 2951 2836 2832 2803 2585 2271 2150 2168 2056 1774 1550 1358 920 896 968 991 1100 1154 1393 1772 2122 1498 1545 1296 1372 2439 2742 2083 2786 3224 3260 3535 3266 2957 2814 2694 2611 2324 2154 2145 1854 1555 1244 1035
549 600 845 902 1003 998 1048 1108 962 1031 1006 982 1182 1234 1227 1212 1163 1181 1255 1371 1259 1072 1036 1110 1179 1267 1512 1633 1532 1183 1095 1476 1539 1634 2183 2782 2808 2797 2628 2605 2654 2673 2643 2614 2664 2618 2422 2339 2220 2052 1764 1723 1527 1501 1469 1416 1254 1152 1086 1011 1033 1958 2218 1714 1459 1557 2045 2217 2265 2637 3185 3070 3163 3190 3070 2680 2505 2280 2149 2162 1968 1808 1608 1524 1300
673 692 775 801 1090 1051 1152 1348 1201 1301 1237 1191 1130 1100 1096 1057 1102 1084 1085 1228 1291 1190 1014 974 1045 1126 1128 1307 1405 1243 1078 1354 1551 1579 1658 1936 2346 2661 2688 2510 2432 2435 2401 2382 2476 2594 2624 2514 2434 2381 2218 1818 1536 1439 1227 1214 1205 1174 1095 969 790 1273 2058 2106 1817 2015 1966 1846 2220 2598 3080 2948 2780 2734 2635 2493 2354 2207 2157 2132 1929 1864 1627 1512 1455
760 793 760 797 717 676 860 1081 1135 1179 1130 1360 1484 1142 1018 965 1129 959 883 929 1128 1238 1098 973 888 936 963 980 1126 1137 1040 1197 1354 1486 1551 1609 1755 2098 2418 2521 2518 2514 2448 2296 2255 2368 2444 2524 2510 2414 2270 2066 1713 1367 1362 1401 1388 1296 1166 1051 977 974 1344 2048 2011 1896 2035 1888 2239 2385 2834 2944 2844 2722 2740 2694 2490 2275 2278 2200 2066 2077 1787 1644 1570
684 766 809 925 806 914 948 1029 1263 1075 1124 1162 1338 1231 1251 1235 1222 1045 939 898 802 940 1050 998 831 859 894 884 988 1025 1013 1078 1208 1279 1399 1530 1602 1756 2049 2274 2382 2457 2499 2418 2575 2258 2284 2289 2299 2222 2086 1906 1696 1346 1130 1213 1344 1377 1349 1228 1085 951 1916 2105 2121 2111 2166 1972 1991 2227 2483 2720 2767 2602 2840 2738 2490 2458 2456 2456 2242 2025 1836 1667 1455
629 536 477 549 592 812 1036 1104 1147 1077 836 899 1026 1155 1167 1132 1400 1227 1124 1175 1109 878 826 876 852 774 798 864 881 960 978 937 1120 1205 1240 1379 1587 1721 1867 2087 2211 2276 2334 2422 2409 2382 2312 2249 2149 2072 1960 1810 1586 1341 1182 1105 1170 1257 1243 1212 1138 1123 1551 2006 2159 2162 2030 1928 1916 1990 2070 2190 2052 2548 2790 2717 2362 2149 2174 2223 2153 2017 1848 1682 1504
950 833 813 860 887 964 1235 1103 1095 1117 1015 724 709 988 1075 1096 1043 1286 1174 1190 1271 1139 959 901 904 868 752 740 817 935 1021 970 982 1170 1224 1253 1414 1646 1790 1886 2022 2072 2092 2191 2307 2354 2373 2291 2168 2074 1983 1867 1694 1606 1483 1243 1055 1115 1148 1072 1042 1158 1136 1555 2001 2126 1924 1727 1742 1760 1843 1999 1920 2052 2702 2697 2374 2073 1851 1698 1726 1649 1596 1564 1565
1152 1147 1106 1104 1148 1177 1270 1182 1110 1153 1108 1015 799 816 939 997 1002 1057 1180 1140 1113 1202 1132 963 878 847 837 809 789 797 888 1004 1063 1217 1281 1299 1350 1534 1748 1846 1893 1936 1970 2067 2169 2247 2276 2207 2081 1985 1949 1918 1882 1780 1595 1322 971 1058 1026 1038 1112 1361 1302 1165 1461 2046 2169 1936 1928 1999 2047 2038 2006 2088 2627 2736 2702 2441 2213 1894 1594 1497 1476 1475 1460
1295 1259 1225 1236 1216 1195 1162 1106 1017 998 1010 990 1020 994 920 854 846 950 1078 915 990 1064 993 956 898 831 808 806 774 740 743 844 890 1079 1275 1408 1393 1426 1592 1825 1904 1922 1907 2014 2181 2182 2118 2114 2085 2043 2040 2514 2503 2272 1761 1764 1397 1389 1312 1337 1356 1330 1347 1590 1386 1755 2185 2305 2286 2322 2327 2334 2335 2222 2299 2390 2306 2108 1951 1751 1521 1511 1516 1503 1470
1116 1033 1004 965 880 874 937 800 784 899 956 996 1026 1026 981 807 771 748 825 946 810 957 945 748 677 738 757 760 712 680 744 786 1037 1265 1278 1317 1320 1340 1326 1595 1870 1960 1974 1943 2047 2194 2279 2220 2183 2765 3136 3666 3574 3373 3343 3566 3929 2867 2033 1788 1614 1530 1373 1694 1765 1731 1896 2200 2341 2512 2630 2572 2485 2420 2243 2174 2203 2130 2017 1949 1804 1643 1542 1543 1533
1271 1200 1138 1041 969 910 867 898 866 798 731 775 876 768 736 712 640 679 681 638 743 910 868 713 495 509 565 622 633 673 733 722 1033 802 984 1429 1448 1351 1264 1336 1484 1726 1890 1999 1999 1951 1896 1973 2087 2575 3440 3899 3460 3485 3427 3422 3313 3447 3653 3310 2552 1876 1722 1668 1990 1924 1908 1994 2096 2328 2572 2571 2579 2606 2551 2465 2466 2417 2380 2302 2210 2050 1887 1734 1595
1354 1278 1161 1035 920 992 865 899 882 844 815 823 762 589 471 492 547 626 679 647 624 597 751 739 629 435 420 517 560 584 630 620 603 636 738 826 1452 1481 1433 1479 1486 1466 1416 1467 1470 1565 1597 1570 1661 1821 1995 2390 2355 2448 3080 3430 3165 3007 2907 2987 3444 3695 2938 2225 2369 2524 2302 2254 2327 2408 2410 2379 2399 2535 2769 2867 2882 2783 2701 2605 2552 2368 2152 1927 1776
1416 1368 1213 991 946 1246 1190 1045 926 814 799 803 727 702 686 783 984 963 773 750 741 719 732 696 630 525 402 376 459 560 561 509 564 575 614 598 666 1383 1026 1162 1286 1338 1309 1238 1099 988 1147 1270 1371 1421 1586 2728 3233 2196 1642 1534 2019 2407 2758 3047 3259 3291 2907 2573 2666 2722 2758 2681 2611 2642 2643 2582 2553 2562 2628 2745 2798 2715 2588 2489 2413 2315 2199 2031 2009
1305 1266 1091 1067 989 926 1243 1150 1052 867 753 747 762 885 930 910 793 705 631 532 510 531 449 560 566 481 347 290 371 501 507 484 476 498 589 692 709 793 1035 945 1007 1093 1136 1049 1073 1054 1021 1248 1388 1427 1334 1491 1804 1813 1661 1508 1380 1350 1653 2131 2433 3156 3456 2447 1978 2449 2918 2684 2672 2615 2637 2721 2712 2655 2578 2470 2346 2356 2331 2202 2082 1987 1943 1961 1914
1300 1270 1191 1296 1256 1072 1133 1139 1080 1075 1009 980 988 1000 992 925 830 750 668 560 457 436 402 366 355 390 353 270 332 434 471 449 460 460 477 658 660 664 1054 1035 1000 1002 965 946 1190 1243 1034 1048 1060 1050 994 1015 1221 1733 1755 1804 1789 1731 1659 1843 2186 2228 2265 2611 2423 1948 2142 2477 2209 2160 2098 2149 2302 2255 2108 1985 1984 2006 2058 1946 1875 1752 1720 1830 1865
1446 1385 1393 1378 1392 1312 1237 1204 1212 1269 1166 1010 855 788 896 949 947 913 839 791 739 652 504 396 354 355 354 296 338 430 460 456 400 342 576 660 675 625 920 1001 946 881 859 804 931 1151 1241 1226 1201 1205 1186 1164 1682 2103 2778 2358 2012 2002 2034 2148 2247 2258 2155 2106 2094 2140 1916 1946 2052 1921 1781 1725 1662 1833 1726 1749 1784 1874 2044 2140 2059 2022 1925 1852 1786
1778 1628 1652 1692 1635 1564 1559 1437 1299 1335 1342 1261 1130 1141 1167 1108 984 941 865 799 804 658 401 324 378 360 377 321 265 292 370 434 360 425 563 609 701 655 557 640 794 819 815 794 764 1021 1271 1317 1292 1280 1302 1304 1393 1350 1365 2307 2082 1822 1750 1777 1819 1958 2076 2080 2044 1964 1948 1880 1763 1811 1820 1712 1809 1916 1886 1790 1653 1655 1799 2114 2141 2083 2023 1908 1776
2045 1947 1907 1852 1752 1685 1605 1517 1419 1596 1373 1399 1474 1480 1329 1167 1091 1008 882 682 547 442 395 533 795 794 658 559 519 494 488 560 599 561 420 501 537 552 494 494 433 410 392 499 609 834 1277 2605 2518 1486 1398 1374 1365 1380 1407 1447 1867 2089 2054 1924 1872 1901 2037 2272 2560 2584 2388 2141 2023 2006 2026 2077 2132 2130 2078 1960 1774 1715 1805 1869 1939 1920 1913 1803 1773
1924 1829 1822 1786 1705 1590 1556 1583 1538 1633 1738 1710 1748 1678 1473 1255 1078 968 850 670 533 439 813 784 1043 1098 1032 958 1220 1127 818 784 784 698 514 432 422 432 388 408 386 495 531 566 541 537 772 1953 2891 2781 1861 1573 1518 1438 1478 1518 1601 1739 1864 1894 1888 1869 1881 1976 2293 2585 2768 2797 2702 2563 2510 2515 2511 2453 2386 2235 2078 1952 1884 1832 1769 1863 1781 1805 1779
1904 1851 1743 1651 1638 1624 1564 1687 1770 1745 1886 1947 1812 1790 1658 1434 1260 1274 1078 1124 1062 904 1201 1293 1468 1784 1906 2083 1552 1599 1218 1013 1202 942 785 665 646 651 666 638 596 531 527 566 632 666 682 710 1293 1805 2457 2250 1869 1706 1722 1762 1772 1781 1812 1818 1776 1715 1660 1636 1752 1990 2127 2437 2575 2579 2601 2620 2617 2555 2482 2341 2215 2191 2138 2083 1970 1856 1772 1754 1759
1934 1727 1435 1272 1280 1283 1345 1503 1680 1724 1756 1784 1851 1834 1735 1640 1478 1380 1316 1392 1524 1580 1771 1842 1784 1716 1767 1952 1973 1970 1928 1733 1656 1409 1195 1082 1007 944 903 883 816 760 699 653 720 746 768 828 981 1182 1288 1501 1705 1818 1792 1710 1616 1546 1546 1570 1557 1556 1541 1550 1572 2908 2288 2033 2195 2454 2499 2436 2383 2341 2348 2322 2293 2286 2268 2211 2144 2065 1984 1932 1899
1636 1305 1322 1208 1100 1002 1020 1141 1373 1585 1694 1697 1674 1602 1698 1694 1768 1765 1681 1383 1289 1395 1460 1628 1694 1685 1711 1866 1898 1885 2120 2460 1674 1437 1350 1300 1252 1182 1249 1045 915 832 836 774 712 815 1023 1160 1222 1292 1375 1459 1530 1581 1598 1559 1460 1368 1321 1265 1308 1383 1436 1516 1589 1654 1880 2242 2172 2156 2339 2472 2464 2429 2425 2466 2474 2402 2314 2236 2190 2166 2130 2086 2045
1620 1592 1488 1364 1263 1175 1127 1170 1293 1423 1487 1510 1480 1545 1762 1781 1749 1736 1746 1716 1566 1426 1624 1746 1813 1831 1896 1952 1964 1962 1981 2183 2281 2005 2047 1940 1812 1656 1540 1487 1440 1352 1341 1253 1179 1052 883 920 1146 1705 1515 1532 1611 1674 1696 1693 1619 1498 1355 1234 1155 1103 1112 1217 1298 1450 1652 1840 2023 2193 2242 2296 2364 2414 2448 2442 2413 2339 2268 2214 2179 2176 2174 2160 2170
1658 1656 1594 1488 1434 1434 1391 1254 1320 1259 1540 1707 1778 1826 1828 1896 1871 1813 1797 1777 1789 1748 1735 1731 1799 1841 1839 1831 1888 2024 2132 2182 2218 2361 2296 2296 2103 2021 2061 1986 1914 1853 1721 1590 1506 1479 1451 1449 1421 1425 1356 1248 1172 1290 1530 1686 1734 1719 1638 1520 1443 1376 1236 1306 1360 1387 1360 1328 1672 1919 2113 2289 2380 2391 2371 2317 2283 2219 2166 2153 2187 2210 2225 2215 2205
1716 1737 1694 1509 1410 1461 1410 1426 1649 1586 1632 1791 1804 1850 1806 1766 1770 1769 1751 1768 1646 1598 1639 1705 1755 1798 1793 1764 1738 1745 1795 1744 1680 1635 1724 1847 1861 1855 1795 1722 1682 1683 1609 1600 1442 1416 1460 1476 1528 1556 1549 1583 1597 1584 1587 1533 1445 1656 1763 1746 1669 1574 1464 1373 1344 1351 1366 1368 1360 1391 1607 1841 2030 2178 2246 2250 2243 2299 2364 2382 2348 2339 2293 2151 2141
1903 1909 1883 1684 1578 1595 1600 1705 1839 1802 1817 1953 1829 1820 1845 1628 1568 1521 1444 1386 1437 1428 1463 1524 1562 1490 1439 1532 1579 1572 1508 1424 1473 1539 1436 1387 1310 1159 1038 1020 1006 986 962 972 988 1027 1094 1164 1220 1258 1279 1311 1409 1512 1629 1704 1715 1629 1562 1668 1744 1727 1678 1592 1561 1568 1607 1606 1552 1514 1472 1446 1514 1692 1819 1888 1903 1870 1922 1934 1963 2035 2110 2102 2045
2046 2074 2044 1804 1751 1682 1609 1576 1694 1862 1815 1877 1738 1675 1644 1423 1263 1303 1371 1314 1192 1133 1174 1317 1278 1230 1161 1341 1386 1267 1171 1142 1178 1255 1340 1339 1260 1142 1044 972 951 918 893 883 839 802 808 846 870 891 916 976 1049 1131 1206 1290 1391 1509 1666 1692 1683 1738 1780 1533 1170 1470 1594 1550 1613 1612 1803 1774 1730 1655 1604 1563 1513 1390 1371 1518 1643 1723 1762 1777 1725
1801 1822 1903 1794 1734 1578 1511 1843 1542 1462 1380 1329 1208 1131 1136 1215 1335 1302 1358 1314 1220 1071 1056 1041 1075 1165 1163 1095 1041 950 892 871 834 802 769 697 618 573 626 642 639 657 680 689 727 750 805 807 807 787 737 764 853 922 965 1002 1050 1158 1282 1387 1527 1621 1611 1429 1470 1601 1450 1295 1001 999 1134 1229 1128 1272 1462 1402 1315 1340 1519 1554 1511 1575 1606 1616 1543
1645 1714 1759 1690 1566 1583 1483 1723 1358 1205 1158 1010 848 820 784 764 836 849 810 783 747 1015 1177 1104 893 742 742 805 795 762 695 659 647 589 550 508 477 441 359 16 13 12 0 0 12 14 18 78 325 369 386 331 311 467 755 850 856 841 876 943 1012 1082 1136 1330 1215 1412 1380 1398 1259 1177 1375 1608 1604 1508 1372 1224 1200 1356 1327 1346 1455 1515 1548 1592 1608
1426 1531 1586 1574 1484 1555 1313 1437 1470 1208 1081 984 943 851 881 865 887 826 822 706 652 630 613 616 563 482 408 382 213 229 417 411 201 185 0 0 0 0 0 0 0 0 0 0 1 0 0 0 0 0 0 0 0 9 54 154 319 512 644 815 977 1054 1016 969 979 1112 1102 1055 1157 1293 1348 1328 1189 1142 1240 1339 1388 1416 1375 1334 1280 1410 1535 1538 1661
1160 1210 1288 1420 1410 1421 1393 1315 1448 1408 1199 1019 918 857 913 770 774 745 757 609 467 402 420 422 389 372 293 0 0 0 0 0 0 0 0 0 0 0 0 0 0 0 0 0 0 0 0 0 0 0 1 1 2 0 1 39 139 277 434 505 575 752 879 888 835 853 874 860 815 862 809 1049 1308 1390 1393 1336 1253 1241 1350 1298 1247 1218 1270 1309 1302
1085 1245 1304 1321 1672 1898 1283 1212 1196 1225 1200 1076 944 789 790 851 758 651 568 431 340 211 0 0 0 0 0 0 0 0 0 0 0 0 0 0 0 0 0 0 0 0 0 0 0 0 0 0 0 0 0 1 1 1 2 6 44 205 482 739 768 706 673 687 751 832 887 744 762 919 1015 1082 1210 1182 1204 1094 1049 1005 983 998 1032 1070 1062 1060 1172
1207 1141 1225 1856 1858 2036 1290 1195 1269 1095 1107 1104 1012 913 872 868 888 835 691 554 513 470 238 46 0 0 0 0 0 0 0 0 0 0 0 0 0 0 0 0 0 0 0 0 0 0 0 0 0 0 0 1 0 0 8 43 61 5 24 200 521 786 897 937 957 1018 965 862 794 629 575 531 469 673 791 854 840 797 783 790 842 860 854 837 836
1124 1237 1206 1310 1168 1401 1257 1309 1279 1147 1031 900 854 815 786 769 694 765 749 553 551 508 442 379 232 0 0 0 0 0 0 0 0 42 159 164 83 79 8 0 0 0 0 0 0 0 0 0 0 0 0 0 9 55 70 56 50 52 77 28 77 212 369 509 543 632 624 705 485 573 684 779 711 545 487 476 542 627 672 686 692 673 671 682 652
1199 2152 1985 2123 1174 1126 1120 962 950 1069 1010 919 804 775 722 819 769 708 685 649 526 514 473 399 339 259 346 334 92 80 162 218 205 216 225 203 196 144 0 0 1 4 0 0 1 1 1 2 1 0 0 0 33 34 62 94 52 66 60 89 85 144 289 373 416 571 661 699 632 636 615 522 424 385 416 493 546 587 586 569 542 533 552 583 592
1050 1125 1166 1299 1026 1137 1098 976 767 744 730 743 727 693 659 1038 1120 917 730 635 527 464 476 511 490 447 470 476 429 336 238 139 151 177 180 195 219 158 0 0 17 10 8 4 2 5 6 6 6 9 10 7 12 34 52 42 32 57 78 127 117 109 210 357 426 486 499 470 459 459 460 451 490 532 552 553 538 513 510 502 510 553 592 631 693
909 870 780 751 685 719 804 707 568 526 500 500 535 594 611 589 778 939 772 664 720 659 661 678 711 688 620 521 396 324 249 164 237 268 297 288 302 286 29 0 4 7 2 3 4 4 1 2 6 11 11 8 5 11 18 28 37 82 145 148 158 153 184 174 122 163 122 212 299 341 346 322 182 117 149 188 242 290 338 396 443 472 499 523 546
918 853 800 732 673 580 489 268 123 310 421 437 393 383 393 558 776 811 673 700 608 578 547 453 724 524 519 486 507 273 326 407 346 324 280 287 396 247 0 0 0 0 0 0 0 0 0 0 0 0 2 2 2 0 0 1 4 5 40 99 147 176 178 162 160 167 181 29 0 0 0 254 285 267 249 225 214 292 313 296 307 294 315 391 434
707 566 502 303 266 244 219 33 180 105 0 9 26 224 405 403 628 526 536 548 693 600 501 481 508 544 594 720 724 584 542 148 1 131 279 271 263 326 0 0 0 0 0 0 0 0 0 0 0 4 70 34 20 0 0 0 0 1 1 0 0 0 34 69 172 0 102 258 288 330 308 256 193 225 192 266 257 253 270 278 302 303 301 301 310
348 0 0 0 0 0 2 187 113 189 112 0 0 10 525 799 293 283 314 352 408 478 485 492 530 551 596 511 298 380 137 206 36 15 250 330 347 2 0 0 0 0 0 0 0 0 0 0 0 0 17 46 41 46 58 56 3 0 0 0 0 0 0 0 0 0 1 1 1 0 0 0 13 191 332 359 304 298 267 86 74 0 0 0 0
0 0 0 0 0 0 24 83 0 0 0 159 25 380 442 457 246 154 184 224 280 338 351 406 442 450 303 202 45 71 249 278 317 224 115 339 382 394 0 0 0 0 0 0 0 0 0 0 0 0 0 0 0 0 0 12 42 36 9 0 10 34 20 0 24 0 1 34 35 11 1 0 0 0 0 1 44 21 0 0 0 0 0 0 0
0 0 0 0 0 0 0 211 102 312 109 235 178 116 581 605 281 27 41 18 188 250 22 285 345 166 152 0 0 241 286 387 343 128 18 291 120 0 0 0 0 0 0 0 0 0 0 0 0 0 0 0 0 0 0 0 0 0 0 0 0 0 4 57 63 135 126 113 90 68 59 53 32 7 0 14 0 0 0 0 0 0 0 0 0
0 0 1 41 0 0 228 512 252 26 117 176 219 724 666 604 262 116 174 59 30 92 269 302 180 173 0 0 68 239 304 258 674 70 172 0 0 0 0 0 0 0 0 0 0 0 0 0 0 0 0 0 0 0 0 0 0 0 0 0 0 0 0 0 0 35 32 29 0 0 79 20 0 0 0 0 0 0 0 0 0 0 0 0 0
0 16 418 472 209 377 186 64 99 76 68 284 292 393 556 546 291 184 50 59 16 263 368 166 104 33 13 138 221 181 141 447 199 0 0 157 293 84 0 0 0 0 0 0 0 0 0 0 0 0 0 0 0 0 0 0 0 0 0 0 0 0 0 0 0 0 0 0 0 0 46 75 83 93 85 0 0 0 0 0 0 0 0 0 0
0 114 210 74 49 0 32 42 63 326 582 568 80 379 473 103 10 3 2 0 289 304 47 202 111 18 13 43 156 86 162 333 23 0 0 0 0 0 0 0 0 0 0 0 0 0 0 0 0 0 0 0 0 0 0 0 0 0 0 0 0 0 0 0 0 0 0 0 0 0 0 0 0 0 0 0 0 0 0 0 0 0 0 7 0
0 19 51 0 4 0 0 3 176 113 138 60 549 530 122 0 6 14 7 0 0 0 89 271 222 132 93 112 130 141 54 89 0 0 0 0 0 0 0 0 0 0 0 0 0 0 0 0 0 0 0 0 0 0 0 0 0 0 0 0 0 0 0 0 0 0 0 0 0 0 0 0 0 0 0 0 0 0 0 0 0 0 0 0 0
0 0 0 14 0 0 0 0 1 0 0 1 31 62 30 41 20 132 656 450 19 388 131 125 148 103 20 94 4 0 0 0 0 0 0 0 0 0 0 0 0 0 0 0 0 0 0 0 0 0 0 0 0 0 0 0 0 0 0 0 0 0 0 0 0 0 0 0 0 0 0 0 0 0 0 0 0 0 0 0 0 0 0 0 0
0 0 0 0 0 0 0 0 120 395 0 0 0 1 0 0 0 69 214 347 530 496 376 190 6 38 25 0 2 0 0 0 1 0 0 0 1 0 0 0 0 0 0 0 0 0 0 0 0 0 0 0 0 0 0 0 0 0 0 0 0 0 0 0 0 0 0 0 0 0 0 0 0 0 0 0 0 0 0 0 0 0 0 0 0
0 0 0 0 0 0 0 0 15 66 0 0 0 25 0 0 0 0 0 0 0 42 78 68 60 48 59 23 0 0 6 0 0 0 0 0 0 0 0 0 0 0 0 0 0 0 0 0 0 0 0 0 0 0 0 0 0 0 0 0 0 0 0 0 0 0 0 0 0 0 0 0 0 0 0 0 0 0 0 0 0 0 0 0 0
0 0 0 0 0 0 0 0 0 2 0 0 0 0 0 0 0 0 0 0 0 0 0 0 0 0 53 88 85 24 79 88 0 0 0 0 0 0 0 0 0 0 0 0 0 0 0 0 0 0 0 0 0 0 0 0 0 0 0 0 0 0 0 0 0 0 0 0 0 0 0 0 0 0 0 0 0 0 0 0 0 0 0 0 0
56 12 4 0 0 0 0 0 0 0 0 0 0 0 0 0 0 0 0 0 0 0 0 0 0 0 0 0 0 0 74 83 87 0 0 0 0 0 0 0 0 0 0 0 0 0 0 0 0 0 0 0 0 0 0 0 0 0 0 0 0 0 0 0 0 0 0 0 0 0 0 0 0 2 0 0 0 0 0 0 0 0 0 0 0
Wind_Speed
28 29 30 29 31 29 28 31 26 24 22 22 21 21 21 21 20 20 22 20 21 22 22 21 21 20 18 17 17 18 19 21 21 21 21 20 21 21 19 19 20 20 20 18 18 16 13 12 13 14 14 14 12 11 12 13 16 17 18 17 14 15 16 16 15 15 15 16 15 14 13 14 12 14 16 15 15 14 13 12 12 11 11 11 10
27 26 25 25 23 23 22 23 23 20 18 19 20 21 21 21 22 22 19 20 20 21 22 23 22 21 19 17 17 18 20 22 22 23 22 20 19 20 18 19 20 21 22 20 18 17 17 15 15 16 17 15 15 14 14 14 17 18 18 16 15 13 14 17 17 19 15 16 16 16 15 15 15 15 17 17 15 15 15 14 12 11 12 12 12
24 23 24 22 19 19 20 20 19 16 18 19 20 20 20 20 20 19 19 20 20 20 21 22 23 20 20 19 17 17 19 21 23 23 21 19 18 18 18 19 20 20 20 20 19 20 18 17 16 17 18 17 17 15 15 15 16 17 17 18 16 15 15 17 20 18 18 15 17 18 16 16 17 16 17 17 17 16 16 16 15 13 12 13 14
24 24 24 22 19 21 22 21 19 20 19 21 21 21 21 20 19 18 19 21 19 20 21 22 22 21 20 19 16 16 19 21 22 21 19 19 19 18 18 19 20 20 21 21 21 21 18 18 17 18 18 17 16 16 16 17 17 17 18 19 18 16 16 17 17 20 19 19 16 16 17 19 16 18 19 20 20 17 15 16 16 15 13 14 16
25 25 24 24 23 21 19 21 22 22 21 24 25 25 24 21 20 18 20 19 19 20 20 21 21 21 20 19 16 15 18 20 21 19 20 20 19 18 17 18 19 20 21 22 23 22 20 18 18 19 19 17 17 16 16 18 17 18 17 18 20 18 19 19 18 21 22 19 17 16 20 20 20 20 21 22 20 19 17 17 18 18 16 16 16
21 24 24 23 22 19 18 20 22 22 22 24 25 25 23 22 21 20 19 19 19 19 18 19 19 19 20 20 18 16 17 20 20 19 19 21 21 20 18 17 18 20 22 24 24 24 21 20 20 20 19 18 17 17 18 18 18 18 18 18 18 20 19 20 21 21 21 19 19 18 19 21 21 20 20 22 23 20 19 19 21 21 20 17 16
17 18 19 19 19 18 19 22 23 22 22 22 23 22 19 18 19 19 20 20 19 19 19 18 18 20 21 21 19 18 18 20 20 18 19 21 22 21 20 18 18 20 23 25 26 25 23 21 21 21 20 19 18 18 19 19 19 18 18 19 21 22 21 21 22 23 22 21 19 19 20 20 23 22 22 23 23 23 21 21 20 21 19 18 18
16 14 12 13 15 20 24 25 23 20 20 21 20 18 17 17 17 20 23 23 20 19 18 17 17 18 20 21 21 21 21 20 20 19 19 21 23 23 21 20 19 21 23 26 27 26 24 23 22 22 20 20 19 20 21 19 21 19 19 21 22 23 22 22 23 23 24 22 21 20 21 22 23 26 28 28 26 24 21 21 20 22 19 19 19
11 12 11 11 13 15 15 18 19 16 16 19 20 19 17 18 19 19 20 18 17 18 18 18 16 16 19 19 20 22 20 19 19 19 20 20 21 22 22 21 20 21 24 26 28 27 25 25 24 24 22 19 18 20 20 21 22 20 20 23 23 23 23 23 23 24 23 24 22 24 25 23 23 27 27 26 24 21 24 23 20 22 23 22 19
7 9 11 12 13 13 12 13 11 12 14 14 15 17 19 20 18 17 17 17 17 17 19 18 17 15 17 18 20 21 20 19 17 15 17 19 21 21 23 23 23 23 24 26 27 26 25 25 25 19 18 17 16 14 15 16 17 21 22 24 24 25 26 24 23 23 24 24 23 26 25 22 24 25 24 22 24 29 29 26 21 24 27 22 21
6 6 8 12 12 13 13 11 9 8 9 9 10 13 16 17 16 15 16 17 16 17 17 17 17 17 17 17 17 18 19 17 13 15 15 15 19 22 23 24 24 24 25 26 26 26 26 25 25 22 20 18 17 13 14 15 16 15 16 20 24 26 27 26 24 24 24 23 25 26 24 22 23 27 24 25 27 26 26 27 26 27 25 25 20
8 6 5 8 9 11 12 12 11 8 8 8 9 12 14 15 14 15 16 16 17 18 18 17 18 19 19 18 17 17 20 21 15 15 14 13 16 21 23 24 25 24 24 25 26 26 26 26 26 26 25 22 22 21 19 17 16 16 16 17 19 20 24 27 27 26 25 24 25 25 25 23 25 28 26 29 27 27 26 28 27 27 25 22 21
6 6 6 6 7 11 14 13 11 8 7 8 9 11 13 13 12 13 13 14 16 18 18 19 18 18 19 20 19 17 19 18 19 15 14 13 13 16 23 23 23 24 24 25 26 26 27 27 27 27 26 20 21 23 24 23 20 17 17 17 18 19 21 23 27 27 27 25 25 24 25 25 26 26 28 28 30 27 28 27 27 26 25 22 21
5 5 6 5 5 9 14 15 13 10 9 9 9 10 10 10 10 11 11 13 14 15 18 18 19 18 18 20 20 20 19 19 17 16 16 15 15 17 22 23 23 23 24 25 26 26 26 26 26 26 26 26 25 25 25 24 24 24 24 24 24 21 19 20 20 23 27 26 26 24 25 29 26 26 27 30 31 28 29 26 27 26 24 21 20
5 6 6 6 6 7 12 14 14 13 12 10 9 9 10 10 10 10 11 12 13 13 14 16 18 18 18 19 20 19 19 17 17 15 16 18 17 18 22 23 24 23 23 24 24 25 25 26 25 24 25 24 24 24 24 24 25 24 23 23 23 23 24 22 23 24 25 26 26 24 25 27 25 25 28 31 29 28 30 28 28 27 25 27 29
6 7 6 6 6 7 9 10 11 13 14 12 10 10 10 10 9 10 11 13 14 14 14 15 16 17 18 18 19 19 19 17 16 16 18 20 21 22 23 24 25 24 23 24 24 24 26 26 25 24 24 24 23 20 22 25 25 23 22 22 23 24 23 22 21 23 25 25 25 25 25 27 26 25 27 30 28 28 29 31 30 30 32 30 24
8 8 8 7 6 6 8 7 6 8 11 14 13 12 11 11 12 13 13 13 14 14 14 13 14 15 16 17 17 18 19 17 15 15 18 23 27 25 25 25 26 26 25 26 26 26 26 25 25 24 23 22 21 20 19 20 24 23 22 22 23 23 22 23 22 21 20 21 21 21 21 23 23 22 23 28 29 31 34 30 26 32 31 28 25
7 7 6 6 5 4 4 5 5 4 5 7 11 14 15 15 15 14 14 14 14 14 16 16 15 15 15 16 17 18 18 17 15 16 18 22 25 25 26 26 25 25 24 25 26 26 25 20 21 23 22 22 19 18 18 23 25 23 23 23 23 22 21 24 27 27 23 20 18 18 19 20 21 21 23 26 28 35 34 28 28 34 29 28 27
8 7 6 6 5 3 2 3 3 3 4 3 5 10 14 16 18 17 16 16 16 18 17 17 17 17 17 18 15 16 18 18 16 16 18 23 25 27 28 28 27 26 26 25 25 24 24 23 19 20 21 21 19 20 20 24 26 24 24 24 22 20 20 25 28 27 28 28 25 23 23 22 23 25 25 25 29 33 32 29 34 37 30 30 30
9 7 6 6 5 4 3 3 3 4 4 3 3 5 10 15 17 18 18 18 17 19 19 19 18 18 19 19 18 17 17 18 22 21 20 22 23 27 28 27 26 26 27 26 25 25 24 23 21 18 17 18 20 20 21 22 25 24 26 25 22 17 21 27 28 28 28 28 25 26 24 25 27 27 28 29 31 32 31 32 35 36 34 32 33
10 10 8 7 5 4 4 4 4 4 5 5 5 5 6 9 12 16 19 22 22 22 21 21 20 19 20 22 22 22 22 23 24 25 26 25 25 28 29 25 26 28 28 27 26 25 25 25 25 23 20 20 20 19 20 21 23 24 25 23 21 19 23 28 26 25 28 28 28 29 29 28 29 30 30 30 31 32 33 33 35 37 36 35 34
10 11 9 8 7 6 5 6 6 5 5 6 6 7 7 8 9 11 15 20 23 23 23 22 21 21 21 22 22 22 22 23 25 25 25 26 27 29 26 24 25 26 25 25 25 25 25 26 26 25 23 22 21 20 19 19 20 25 23 21 19 20 24 27 29 31 30 30 30 31 30 30 30 30 30 31 32 33 35 35 35 37 37 35 34
9 11 11 10 8 7 7 7 7 7 7 7 7 7 9 10 10 10 11 14 18 21 24 25 25 25 25 25 24 24 24 25 25 26 23 24 24 25 23 25 27 28 26 24 25 24 26 27 27 24 24 25 24 23 22 20 24 26 21 21 21 22 27 32 31 32 32 32 32 30 29 30 31 30 31 32 34 38 38 37 36 36 35 33 33
10 9 10 11 10 9 8 7 7 8 9 10 10 10 10 12 12 12 13 12 13 15 18 21 23 24 25 26 28 29 29 29 28 27 27 25 23 23 23 24 28 29 29 26 27 27 27 28 30 33 34 32 31 30 27 27 29 24 25 23 23 26 32 32 32 32 32 32 32 30 29 30 32 32 32 34 37 39 39 38 36 35 34 33 33
10 9 9 10 11 10 10 9 7 9 10 12 13 13 12 13 13 13 15 12 12 12 13 16 18 19 21 23 26 29 30 30 32 33 34 39 40 37 32 30 28 29 29 28 29 29 30 31 31 30 30 30 29 30 31 29 28 29 29 30 31 36 36 36 35 36 35 33 32 31 30 30 32 33 33 36 39 41 41 38 36 36 36 35 33
10 9 9 9 10 11 11 10 9 10 11 12 13 14 14 14 13 15 15 15 15 14 14 17 17 18 19 19 21 25 28 30 33 35 38 39 39 41 40 38 38 36 33 32 30 29 29 28 28 29 30 30 32 33 33 32 31 29 30 33 39 39 41 40 40 40 37 36 36 34 32 34 34 36 40 41 40 37 37 36 37 37 38 38 36
12 10 10 10 11 12 12 12 11 12 13 13 13 14 15 15 15 17 17 16 15 14 15 16 17 18 19 22 24 27 29 31 31 32 32 34 34 34 35 36 37 38 38 38 38 37 36 36 37 37 35 32 31 32 32 31 34 34 36 39 41 42 44 47 46 43 40 39 39 38 37 37 39 40 36 36 35 32 35 37 38 36 37 39 39
12 11 10 10 10 11 12 13 14 13 13 14 15 14 15 16 17 18 18 18 18 17 17 17 18 21 24 25 25 26 27 27 28 29 29 31 32 31 32 33 34 34 33 34 35 34 35 36 36 38 39 39 39 41 41 40 39 39 39 41 42 43 46 47 42 35 35 39 40 40 39 40 39 36 35 35 33 31 35 39 38 35 36 39 44
12 12 11 11 10 10 11 11 13 13 12 12 13 14 15 15 17 17 18 19 20 21 21 22 22 23 26 26 27 26 26 26 27 28 30 31 31 31 31 nan nan nan nan nan nan nan nan nan 33 34 35 34 35 35 36 38 39 40 40 41 43 45 48 48 43 36 38 42 41 40 40 43 39 38 40 39 35 33 38 39 38 37 38 41 44
13 12 12 12 11 11 11 11 12 12 13 13 13 14 19 18 16 18 17 19 22 24 26 23 23 25 26 24 27 28 27 28 34 36 nan nan nan nan nan nan nan nan nan nan nan nan nan nan nan nan nan nan nan nan nan 34 35 35 36 38 40 42 44 45 43 42 40 40 41 40 40 41 39 39 42 41 39 38 38 39 39 41 41 42 42
13 13 13 11 12 12 12 13 12 13 13 14 14 15 14 15 20 20 17 20 22 25 27 29 29 26 26 nan nan nan nan nan nan nan nan nan nan nan nan nan nan nan nan nan nan nan nan nan nan nan nan nan nan nan nan nan 34 34 34 36 38 41 41 41 41 42 42 44 40 39 41 41 39 40 43 44 42 40 40 41 42 43 44 45 42
15 13 13 13 12 13 13 13 14 14 14 14 15 16 16 15 13 17 21 22 22 22 nan nan nan nan nan nan nan nan nan nan nan nan nan nan nan nan nan nan nan nan nan nan nan nan nan nan nan nan nan nan nan nan nan nan nan 35 36 38 40 41 41 40 42 44 44 42 41 42 43 43 42 41 41 41 41 40 40 42 45 45 47 52 49
16 14 14 14 14 14 15 14 14 15 15 15 15 16 17 17 16 13 15 18 19 19 19 nan nan nan nan nan nan nan nan nan nan nan nan nan nan nan nan nan nan nan nan nan nan nan nan nan nan nan nan nan nan nan nan nan nan nan nan 37 38 41 43 43 46 46 45 43 41 40 39 40 40 40 40 40 39 38 38 40 42 44 45 46 48
17 16 15 15 16 15 15 15 16 16 16 16 17 17 17 18 17 17 17 16 16 16 17 18 19 nan nan nan nan nan nan nan nan nan 31 31 nan nan nan nan nan nan nan nan nan nan nan nan nan nan nan nan nan nan nan nan nan nan nan nan nan 40 41 44 45 43 45 43 41 40 39 40 41 40 40 40 40 39 37 37 38 39 39 41 42
19 18 17 17 16 15 15 15 17 18 18 17 17 17 17 17 17 18 18 19 18 18 19 20 21 23 21 20 nan nan 19 19 23 28 30 30 28 30 nan nan nan nan nan nan nan nan nan nan nan nan nan nan nan nan nan nan nan nan nan nan nan 42 42 43 44 45 44 44 41 40 41 41 40 40 40 39 39 39 38 38 39 39 38 39 40
21 20 19 19 19 18 17 16 17 17 18 18 18 17 17 17 18 19 19 19 20 20 20 20 21 21 19 17 20 21 20 21 25 28 29 29 29 31 nan nan nan nan nan nan nan nan nan nan nan nan nan nan nan nan nan nan nan nan nan 48 47 46 46 46 46 46 46 46 44 42 41 41 41 41 41 39 37 37 37 37 38 40 40 39 41
23 22 22 21 21 21 20 19 19 18 19 19 19 18 17 17 17 19 20 21 21 22 21 21 23 23 23 22 21 19 19 21 24 26 28 30 31 30 nan nan nan nan nan nan nan nan nan nan nan nan nan nan nan nan nan nan nan nan 43 45 45 45 45 44 44 44 45 45 44 43 41 40 40 39 39 38 39 39 41 43 44 44 44 46 49
23 22 21 21 21 21 20 20 18 18 18 18 18 18 17 17 19 21 20 21 23 23 22 21 23 23 22 21 23 25 27 32 35 34 33 33 31 29 nan nan nan nan nan nan nan nan nan nan nan nan nan nan nan nan nan nan nan nan nan nan 39 40 40 41 42 42 42 nan nan nan nan 41 41 41 41 41 42 43 45 46 47 47 47 49 50
22 22 23 23 22 20 19 nan 17 17 nan nan nan 17 17 19 20 20 20 20 21 21 22 21 21 21 20 22 24 25 29 26 nan 28 28 27 27 26 nan nan nan nan nan nan nan nan nan nan nan nan nan nan nan nan nan nan nan nan nan nan nan nan nan nan 37 nan 40 41 41 41 41 41 40 41 43 44 43 43 44 44 44 45 46 46 46
22 nan nan nan nan nan nan 17 16 17 17 nan nan nan 18 20 20 20 19 20 20 20 21 21 20 19 20 23 22 23 26 24 nan nan 25 25 24 nan nan nan nan nan nan nan nan nan nan nan nan nan nan nan nan nan nan nan nan nan nan nan nan nan nan nan nan nan nan nan nan nan nan nan nan 40 42 42 42 43 43 nan nan nan nan nan nan
nan nan nan nan nan nan nan nan nan nan nan 17 nan 18 19 20 19 19 20 19 20 20 21 20 18 17 19 19 nan nan 24 22 22 23 23 24 23 23 nan nan nan nan nan nan nan nan nan nan nan nan nan nan nan nan nan nan nan nan nan nan nan nan nan nan nan nan nan nan nan nan nan nan nan nan nan nan nan nan nan nan nan nan nan nan nan
nan nan nan nan nan nan nan 16 15 15 18 19 20 19 18 19 20 nan nan nan 19 19 nan 19 17 19 17 nan nan 22 22 21 20 21 nan 24 23 nan nan nan nan nan nan nan nan nan nan nan nan nan nan nan nan nan nan nan nan nan nan nan nan nan nan nan nan 30 31 32 nan nan nan nan nan nan nan nan nan nan nan nan nan nan nan nan nan
nan nan nan nan nan nan 18 19 21 nan 20 21 19 19 19 20 20 18 18 nan nan nan 19 17 14 16 nan nan nan 19 18 20 22 nan 24 nan nan nan nan nan nan nan nan nan nan nan nan nan nan nan nan nan nan nan nan nan nan nan nan nan nan nan nan nan nan nan nan nan nan nan nan nan nan nan nan nan nan nan nan nan nan nan nan nan nan
nan nan 20 20 19 19 19 nan nan nan nan 21 21 20 20 21 20 19 nan nan nan 17 18 17 16 nan nan 17 18 18 18 20 23 nan nan 23 21 nan nan nan nan nan nan nan nan nan nan nan nan nan nan nan nan nan nan nan nan nan nan nan nan nan nan nan nan nan nan nan nan nan nan nan nan nan nan nan nan nan nan nan nan nan nan nan nan
nan 24 23 nan nan nan nan nan nan 20 20 22 nan 21 22 23 nan nan nan nan 17 17 nan 16 16 nan nan nan 16 nan 17 19 nan nan nan nan nan nan nan nan nan nan nan nan nan nan nan nan nan nan nan nan nan nan nan nan nan nan nan nan nan nan nan nan nan nan nan nan nan nan nan nan nan nan nan nan nan nan nan nan nan nan nan nan nan
nan nan nan nan nan nan nan nan 21 21 23 nan 23 23 23 nan nan nan nan nan nan nan nan 15 16 15 nan 14 14 15 nan nan nan nan nan nan nan nan nan nan nan nan nan nan nan nan nan nan nan nan nan nan nan nan nan nan nan nan nan nan nan nan nan nan nan nan nan nan nan nan nan nan nan nan nan nan nan nan nan nan nan nan nan nan nan
nan nan nan nan nan nan nan nan nan nan nan nan nan nan nan nan nan 21 20 19 nan 16 15 14 14 14 nan nan nan nan nan nan nan nan nan nan nan nan nan nan nan nan nan nan nan nan nan nan nan nan nan nan nan nan nan nan nan nan nan nan nan nan nan nan nan nan nan nan nan nan nan nan nan nan nan nan nan nan nan nan nan nan nan nan nan
nan nan nan nan nan nan nan nan 21 23 nan nan nan nan nan nan nan nan 19 17 17 16 15 15 nan nan nan nan nan nan nan nan nan nan nan nan nan nan nan nan nan nan nan nan nan nan nan nan nan nan nan nan nan nan nan nan nan nan nan nan nan nan nan nan nan nan nan nan nan nan nan nan nan nan nan nan nan nan nan nan nan nan nan nan nan
nan nan nan nan nan nan nan nan nan nan nan nan nan nan nan nan nan nan nan nan nan nan nan nan nan nan nan nan nan nan nan nan nan nan nan nan nan nan nan nan nan nan nan nan nan nan nan nan nan nan nan nan nan nan nan nan nan nan nan nan nan nan nan nan nan nan nan nan nan nan nan nan nan nan nan nan nan nan nan nan nan nan nan nan nan
nan nan nan nan nan nan nan nan nan nan nan nan nan nan nan nan nan nan nan nan nan nan nan nan nan nan nan nan nan nan nan nan nan nan nan nan nan nan nan nan nan nan nan nan nan nan nan nan nan nan nan nan nan nan nan nan nan nan nan nan nan nan nan nan nan nan nan nan nan nan nan nan nan nan nan nan nan nan nan nan nan nan nan nan nan
nan nan nan nan nan nan nan nan nan nan nan nan nan nan nan nan nan nan nan nan nan nan nan nan nan nan nan nan nan nan nan nan nan nan nan nan nan nan nan nan nan nan nan nan nan nan nan nan nan nan nan nan nan nan nan nan nan nan nan nan nan nan nan nan nan nan nan nan nan nan nan nan nan nan nan nan nan nan nan nan nan nan nan nan nan
Wind_Direction
258 246 237 230 225 225 225 220 216 219 238 243 239 236 231 228 230 234 233 234 232 232 231 229 232 236 240 237 236 233 228 227 230 233 236 240 244 242 235 230 230 229 229 226 229 234 241 241 235 233 238 239 237 235 233 240 249 255 262 256 250 255 272 275 280 268 259 263 272 277 278 279 277 277 280 282 283 277 276 281 288 288 290 288 287
259 256 244 238 236 232 234 225 219 221 234 239 241 234 229 227 229 231 236 236 235 234 231 225 225 233 239 238 233 234 232 230 231 236 236 238 242 243 239 232 229 226 229 228 226 227 236 239 232 233 235 238 237 238 242 238 247 250 252 258 261 265 260 266 269 272 274 259 266 262 276 278 283 273 285 285 283 279 285 285 283 286 290 292 289
253 245 243 244 239 239 244 240 233 230 236 238 240 233 226 227 230 233 235 236 234 234 232 228 224 228 236 239 233 231 235 234 231 233 236 236 235 234 236 236 232 226 226 228 229 228 229 233 233 234 233 230 233 236 239 241 240 245 252 256 257 258 266 269 266 269 272 269 268 274 280 278 281 283 280 282 284 285 288 290 289 286 284 287 287
254 249 249 249 245 241 239 238 233 230 232 230 235 229 224 226 229 230 234 236 237 233 232 230 226 224 232 239 237 229 233 235 233 230 231 232 229 226 227 232 233 228 223 224 228 229 228 228 231 235 235 234 233 234 237 240 240 241 241 253 256 255 261 266 266 270 271 271 263 276 276 278 268 269 275 275 281 284 284 284 282 285 284 279 278
256 250 247 249 246 241 237 232 231 231 230 228 229 224 220 225 227 230 235 237 238 236 230 228 225 223 228 236 239 231 230 235 235 230 225 225 225 223 223 227 231 229 223 222 226 229 227 228 230 234 235 235 235 238 241 241 242 243 244 246 254 253 256 267 267 262 267 275 269 262 263 264 263 267 275 276 268 271 274 285 288 285 278 275 278
258 258 252 250 246 239 234 231 228 232 232 230 226 221 220 221 226 228 233 237 237 235 232 227 225 223 223 231 236 230 228 232 234 230 226 223 222 223 225 227 229 230 225 222 223 227 228 229 231 236 237 238 237 241 243 245 246 248 247 245 249 254 258 261 265 267 270 273 273 266 260 267 263 263 271 275 277 274 270 271 273 277 279 280 278
271 268 263 254 243 235 233 229 227 231 234 229 224 219 219 224 227 229 229 231 233 230 229 230 226 226 226 228 230 227 225 231 233 230 226 226 226 226 228 231 230 231 228 224 222 224 227 230 231 236 238 240 241 243 247 248 250 251 254 255 255 259 260 262 265 268 269 268 262 263 264 259 263 266 264 270 270 269 275 268 270 273 280 287 286
280 280 276 264 249 240 236 236 235 233 231 224 217 215 217 224 229 229 231 226 220 227 230 231 228 227 228 227 223 223 224 228 233 231 227 228 230 230 233 235 234 232 231 227 224 223 224 227 231 234 237 239 242 244 250 251 252 252 255 257 258 262 262 262 263 267 268 269 271 268 263 264 255 254 257 262 264 257 266 272 279 281 286 284 282
285 281 282 280 265 252 245 235 228 229 227 224 218 218 224 228 231 234 236 239 229 223 227 230 231 230 229 227 222 223 226 227 231 234 231 229 230 233 235 239 238 236 233 229 227 224 223 226 229 232 236 240 246 251 255 260 258 256 255 259 260 264 260 259 264 267 267 269 268 262 263 262 262 264 264 267 273 277 270 270 269 274 278 279 279
302 282 275 271 267 260 249 241 232 223 220 216 215 221 227 231 233 236 237 238 235 233 230 229 234 236 232 229 228 226 224 227 234 247 243 234 233 233 237 241 241 238 236 234 231 228 226 227 230 234 239 241 245 250 255 260 264 264 264 264 264 265 267 266 265 266 268 269 270 271 270 269 270 271 272 272 269 262 266 272 274 270 272 276 274
334 305 278 265 266 259 252 252 244 227 226 229 224 224 232 237 238 236 237 236 235 237 237 234 233 235 235 233 233 229 224 225 243 253 256 255 242 239 242 243 242 239 236 235 233 231 229 230 232 233 235 238 241 245 248 252 255 260 267 273 274 273 270 270 269 269 270 270 269 271 274 275 272 272 274 272 270 274 272 273 273 271 274 277 280
346 341 296 271 264 262 257 255 249 227 212 225 230 230 232 237 236 232 230 230 229 231 234 233 233 234 233 233 232 229 223 216 235 260 263 261 254 245 243 244 243 240 235 233 232 233 233 234 236 238 239 241 242 242 244 248 254 259 263 268 276 286 284 278 273 269 268 269 270 274 274 275 272 273 272 269 273 273 273 274 275 277 277 278 276
339 339 333 314 279 258 258 261 250 233 216 220 223 225 231 232 230 226 225 227 230 233 232 232 232 234 235 235 233 230 226 220 216 248 266 265 265 257 245 246 245 240 237 234 234 236 237 239 241 242 243 246 244 244 247 247 250 258 265 268 272 282 287 290 285 279 276 276 276 276 278 274 273 274 276 275 274 279 277 276 275 275 279 282 280
331 332 339 343 301 266 262 260 256 245 236 234 229 231 235 235 229 225 228 235 240 241 236 229 228 234 236 233 228 225 227 223 221 238 255 266 266 260 246 246 243 239 238 237 239 242 244 246 245 244 244 244 244 246 247 249 250 252 257 261 265 270 279 283 285 288 283 279 279 279 277 275 278 278 281 280 280 282 281 281 280 279 280 288 291
330 330 342 348 335 294 271 263 254 244 241 240 240 241 248 244 237 230 236 246 251 250 239 228 229 236 236 232 227 225 226 228 226 235 253 263 264 261 247 243 238 235 235 238 241 244 246 248 249 249 249 250 251 252 252 252 253 254 256 259 264 267 269 272 275 274 274 274 278 280 279 282 281 280 279 283 289 286 286 288 290 291 285 269 262
338 337 343 349 351 330 304 281 264 254 249 247 243 239 242 249 245 235 235 238 239 239 230 228 233 237 236 233 230 228 229 228 228 241 256 260 264 252 244 238 232 229 230 234 237 239 242 246 247 247 249 252 255 263 262 259 258 258 259 260 260 261 264 271 280 280 279 279 278 280 280 284 289 287 285 285 285 282 277 269 268 271 271 273 276
346 351 354 357 360 344 330 324 307 280 266 258 252 242 234 232 227 230 237 240 243 242 235 233 235 239 238 236 234 231 232 232 232 242 257 262 256 249 244 236 228 225 226 230 232 235 238 242 245 246 248 251 257 266 267 266 261 263 263 263 264 264 265 265 272 279 282 285 288 290 292 293 296 299 295 295 288 281 276 276 277 273 274 276 275
338 343 343 352 11 17 347 332 338 328 303 274 256 245 238 229 226 229 235 239 241 241 236 233 236 241 244 240 241 240 238 240 247 248 253 259 258 251 244 238 231 229 228 230 234 236 238 244 249 248 250 251 258 266 268 265 262 262 262 262 261 263 265 268 267 269 279 282 283 287 290 289 290 291 291 291 292 281 282 284 279 274 274 274 271
334 342 334 330 343 6 350 309 314 325 344 332 271 253 247 240 234 234 234 233 233 237 237 238 237 238 237 236 240 241 238 238 250 254 259 261 255 245 243 238 233 233 235 236 239 241 241 243 250 255 255 255 260 261 265 264 260 260 261 260 260 264 270 271 271 270 269 269 269 270 268 272 273 274 277 289 291 288 286 285 277 278 277 274 272
334 324 321 319 314 309 307 299 283 298 300 285 258 253 243 241 240 239 236 237 234 235 236 240 240 238 236 237 238 239 239 237 241 248 244 246 248 241 239 239 236 237 240 242 242 242 246 247 249 255 263 264 267 268 269 272 267 265 265 267 270 274 272 269 271 274 273 276 276 276 277 275 275 275 274 274 277 282 284 281 277 278 277 275 274
316 316 310 305 302 303 296 293 286 270 280 284 268 251 262 258 249 242 239 236 232 232 234 237 242 240 239 241 242 242 245 245 243 255 255 254 250 245 238 238 239 240 242 242 244 244 245 248 250 252 255 256 257 260 266 273 277 272 273 275 278 277 270 270 273 283 278 278 278 277 276 276 276 276 275 275 276 277 277 277 276 276 277 274 274
297 300 302 299 295 294 288 278 276 276 265 265 264 265 262 267 268 258 247 241 237 236 236 238 242 242 239 241 244 244 242 245 243 243 252 256 259 265 256 250 253 250 249 248 248 249 249 248 249 251 252 255 260 266 271 274 282 276 278 285 283 275 269 266 266 266 270 272 273 274 277 278 278 279 279 278 278 276 273 273 273 274 276 279 283
285 287 291 293 294 291 285 287 284 274 275 273 268 264 261 264 265 264 258 248 244 241 241 244 245 245 241 239 241 242 242 240 248 247 252 254 255 257 255 251 253 254 254 251 253 251 251 251 250 251 252 251 252 255 258 262 262 269 276 275 275 274 268 264 264 265 266 268 268 271 275 277 277 278 277 275 273 272 270 271 272 275 278 281 283
280 282 285 288 291 292 289 282 273 273 273 274 272 267 262 261 259 261 260 256 248 246 245 247 248 248 245 240 239 240 243 244 245 249 250 256 257 256 249 244 241 246 247 248 248 248 246 248 246 237 236 239 241 245 250 256 264 268 269 268 267 265 265 267 268 270 269 268 269 269 270 272 272 270 269 270 270 273 275 275 277 280 281 279 281
285 285 282 283 289 288 286 284 278 274 272 276 276 273 269 258 255 252 257 257 255 250 249 250 251 251 250 247 243 242 244 246 246 247 247 251 254 254 253 252 250 254 251 248 247 248 244 237 233 234 238 239 241 243 247 254 261 265 266 266 265 266 268 270 270 269 270 271 272 270 268 268 269 269 268 268 269 269 272 277 279 279 278 277 277
290 291 285 280 279 280 280 282 281 277 273 273 274 276 278 273 269 263 263 258 256 252 246 249 249 249 249 247 247 245 246 247 249 250 251 254 255 254 254 255 254 258 258 253 250 243 241 242 243 244 246 249 252 255 256 257 258 262 266 270 269 271 271 270 269 269 270 270 270 270 269 266 266 263 261 262 265 273 279 280 280 280 281 282 280
282 286 289 285 279 278 280 280 278 275 274 271 269 271 275 280 277 274 275 272 269 264 261 258 255 255 255 252 251 251 251 251 252 252 251 252 252 252 253 252 251 251 252 253 253 252 250 252 254 253 255 255 257 259 258 256 257 260 263 266 268 270 271 267 262 261 265 268 269 269 268 267 264 266 270 271 273 275 277 277 277 279 281 283 284
282 283 286 283 281 280 281 291 284 280 279 279 275 268 266 272 282 283 284 284 282 278 274 270 269 268 266 266 264 262 262 261 260 260 258 257 256 254 253 253 251 251 250 250 249 249 248 250 252 255 257 258 259 261 262 263 263 263 264 266 267 268 269 272 271 270 274 272 268 267 267 267 269 271 270 270 270 271 274 277 280 282 283 281 278
276 278 280 279 281 279 287 281 285 287 282 276 276 278 285 278 275 268 268 273 282 282 279 276 274 274 274 274 273 272 269 269 271 269 267 268 265 263 260 nan nan nan nan nan nan nan nan nan 254 256 259 259 259 259 259 259 260 262 264 265 267 268 270 272 276 272 265 266 269 271 270 270 274 276 274 274 276 273 271 272 275 277 276 276 278
269 276 278 280 283 285 287 287 290 293 293 289 283 274 257 260 272 283 279 265 267 274 277 277 279 277 275 273 272 276 275 273 276 274 nan nan nan nan nan nan nan nan nan nan nan nan nan nan nan nan nan nan nan nan nan 263 262 261 263 263 265 266 269 271 272 270 268 268 267 270 274 274 273 274 275 274 270 268 270 274 273 274 273 276 278
261 266 276 283 288 288 291 293 295 296 297 297 295 291 287 276 257 252 265 283 277 273 272 275 272 272 276 nan nan nan nan nan nan nan nan nan nan nan nan nan nan nan nan nan nan nan nan nan nan nan nan nan nan nan nan nan 267 266 265 266 268 270 271 273 273 272 272 273 275 275 275 277 278 275 275 276 272 267 265 269 270 270 272 274 277
264 263 275 280 291 289 291 292 293 296 298 299 299 300 299 294 279 263 261 269 268 271 nan nan nan nan nan nan nan nan nan nan nan nan nan nan nan nan nan nan nan nan nan nan nan nan nan nan nan nan nan nan nan nan nan nan nan 271 268 268 269 271 273 273 273 274 273 273 274 275 275 276 276 276 277 278 276 269 265 266 269 270 271 274 278
264 266 266 267 271 278 287 292 295 298 300 299 299 297 298 298 298 292 275 271 280 280 275 nan nan nan nan nan nan nan nan nan nan nan nan nan nan nan nan nan nan nan nan nan nan nan nan nan nan nan nan nan nan nan nan nan nan nan nan 272 270 270 271 271 271 275 276 277 274 272 272 274 278 280 282 283 282 278 274 273 272 271 271 274 277
263 267 266 267 270 271 280 288 293 298 296 298 299 299 300 299 301 298 296 287 279 277 283 289 289 nan nan nan nan nan nan nan nan nan 276 272 nan nan nan nan nan nan nan nan nan nan nan nan nan nan nan nan nan nan nan nan nan nan nan nan nan 272 272 273 275 276 277 278 277 277 276 276 278 280 281 282 283 282 281 281 280 279 279 280 281
263 272 281 273 273 277 282 283 289 289 291 296 295 295 299 298 297 298 296 295 292 290 286 283 290 302 300 294 nan nan 294 292 282 279 279 278 276 276 nan nan nan nan nan nan nan nan nan nan nan nan nan nan nan nan nan nan nan nan nan nan nan 275 273 273 274 275 277 278 278 277 278 278 279 279 279 280 280 282 282 282 282 284 283 283 283
266 263 262 267 265 272 275 281 288 293 294 295 293 290 291 292 295 299 297 292 289 286 282 287 288 293 302 297 295 299 300 293 286 283 282 282 282 282 nan nan nan nan nan nan nan nan nan nan nan nan nan nan nan nan nan nan nan nan nan 269 269 269 268 267 266 266 268 269 270 270 270 273 274 275 276 279 282 282 282 281 281 282 284 284 284
265 265 267 269 272 275 280 283 287 288 289 287 284 283 281 286 292 291 291 291 288 286 290 285 281 278 282 284 294 295 293 284 281 280 281 285 286 282 nan nan nan nan nan nan nan nan nan nan nan nan nan nan nan nan nan nan nan nan 270 270 270 270 269 269 267 266 266 268 269 269 269 270 271 272 274 275 275 275 274 273 273 275 277 279 278
270 272 273 275 275 278 281 288 294 296 293 292 291 291 288 285 288 293 294 292 292 292 290 285 283 278 279 279 288 287 280 279 277 275 277 279 282 283 nan nan nan nan nan nan nan nan nan nan nan nan nan nan nan nan nan nan nan nan nan nan 266 266 263 263 262 262 263 nan nan nan nan 270 271 272 273 273 274 274 275 275 277 277 276 277 278
268 276 283 283 280 282 284 nan 286 291 nan nan nan 294 292 294 295 296 299 299 297 293 292 290 285 283 290 288 283 283 284 282 nan 278 279 281 284 285 nan nan nan nan nan nan nan nan nan nan nan nan nan nan nan nan nan nan nan nan nan nan nan nan nan nan 264 nan 262 262 263 264 266 268 270 271 272 273 273 273 273 273 273 274 275 274 273
267 nan nan nan nan nan nan 281 288 294 297 nan nan nan 296 297 300 303 303 301 301 298 296 296 296 295 292 286 291 291 287 284 nan nan 280 278 279 nan nan nan nan nan nan nan nan nan nan nan nan nan nan nan nan nan nan nan nan nan nan nan nan nan nan nan nan nan nan nan nan nan nan nan nan 271 272 273 274 274 273 nan nan nan nan nan nan
nan nan nan nan nan nan nan nan nan nan nan 301 nan 299 301 299 300 302 305 304 302 298 295 295 294 294 292 301 nan nan 291 289 282 282 286 285 285 284 nan nan nan nan nan nan nan nan nan nan nan nan nan nan nan nan nan nan nan nan nan nan nan nan nan nan nan nan nan nan nan nan nan nan nan nan nan nan nan nan nan nan nan nan nan nan nan
nan nan nan nan nan nan nan 280 289 297 301 297 296 296 294 294 298 nan nan nan 300 297 nan 297 302 304 307 nan nan 297 288 287 283 282 nan 290 288 nan nan nan nan nan nan nan nan nan nan nan nan nan nan nan nan nan nan nan nan nan nan nan nan nan nan nan nan 271 269 268 nan nan nan nan nan nan nan nan nan nan nan nan nan nan nan nan nan
nan nan nan nan nan nan 278 282 285 nan 291 295 297 299 300 297 298 300 300 nan nan nan 296 299 304 302 nan nan nan 302 289 285 283 nan 290 nan nan nan nan nan nan nan nan nan nan nan nan nan nan nan nan nan nan nan nan nan nan nan nan nan nan nan nan nan nan nan nan nan nan nan nan nan nan nan nan nan nan nan nan nan nan nan nan nan nan
nan nan 261 264 268 270 276 nan nan nan nan 298 297 295 294 293 295 294 nan nan nan 300 304 308 304 nan nan 306 305 303 296 290 289 nan nan 289 292 nan nan nan nan nan nan nan nan nan nan nan nan nan nan nan nan nan nan nan nan nan nan nan nan nan nan nan nan nan nan nan nan nan nan nan nan nan nan nan nan nan nan nan nan nan nan nan nan
nan 261 263 nan nan nan nan nan nan 288 289 288 nan 291 293 291 nan nan nan nan 307 308 nan 302 305 nan nan nan 313 nan 305 301 nan nan nan nan nan nan nan nan nan nan nan nan nan nan nan nan nan nan nan nan nan nan nan nan nan nan nan nan nan nan nan nan nan nan nan nan nan nan nan nan nan nan nan nan nan nan nan nan nan nan nan nan nan
nan nan nan nan nan nan nan nan 285 287 288 nan 288 289 289 nan nan nan nan nan nan nan nan 302 308 311 nan 314 309 307 nan nan nan nan nan nan nan nan nan nan nan nan nan nan nan nan nan nan nan nan nan nan nan nan nan nan nan nan nan nan nan nan nan nan nan nan nan nan nan nan nan nan nan nan nan nan nan nan nan nan nan nan nan nan nan
nan nan nan nan nan nan nan nan nan nan nan nan nan nan nan nan nan 299 300 303 nan 302 300 299 302 311 nan nan nan nan nan nan nan nan nan nan nan nan nan nan nan nan nan nan nan nan nan nan nan nan nan nan nan nan nan nan nan nan nan nan nan nan nan nan nan nan nan nan nan nan nan nan nan nan nan nan nan nan nan nan nan nan nan nan nan
nan nan nan nan nan nan nan nan 282 286 nan nan nan nan nan nan nan nan 300 299 299 299 299 300 nan nan nan nan nan nan nan nan nan nan nan nan nan nan nan nan nan nan nan nan nan nan nan nan nan nan nan nan nan nan nan nan nan nan nan nan nan nan nan nan nan nan nan nan nan nan nan nan nan nan nan nan nan nan nan nan nan nan nan nan nan
nan nan nan nan nan nan nan nan nan nan nan nan nan nan nan nan nan nan nan nan nan nan nan nan nan nan nan nan nan nan nan nan nan nan nan nan nan nan nan nan nan nan nan nan nan nan nan nan nan nan nan nan nan nan nan nan nan nan nan nan nan nan nan nan nan nan nan nan nan nan nan nan nan nan nan nan nan nan nan nan nan nan nan nan nan
nan nan nan nan nan nan nan nan nan nan nan nan nan nan nan nan nan nan nan nan nan nan nan nan nan nan nan nan nan nan nan nan nan nan nan nan nan nan nan nan nan nan nan nan nan nan nan nan nan nan nan nan nan nan nan nan nan nan nan nan nan nan nan nan nan nan nan nan nan nan nan nan nan nan nan nan nan nan nan nan nan nan nan nan nan
nan nan nan nan nan nan nan nan nan nan nan nan nan nan nan nan nan nan nan nan nan nan nan nan nan nan nan nan nan nan nan nan nan nan nan nan nan nan nan nan nan nan nan nan nan nan nan nan nan nan nan nan nan nan nan nan nan nan nan nan nan nan nan nan nan nan nan nan nan nan nan nan nan nan nan nan nan nan nan nan nan nan nan nan nan